カタログに戻る

THORAD AGENA D DEB

運用中LEO
NORAD 4164·DEBRIS·🇺🇸 United States

打ち上げ Sep 30, 1969 から Vandenberg Space Force Base

Loading…

次のパス (今後24時間)

TLE

最新Source: Space-Track

元期: Sep 14, 2026, 08:31 UTC

1 04164U 69082AG  26257.35543463  .00000967  00000-0  35695-3 0  9998
2 04164  70.0766 297.9743 0036999 347.9852  12.0388 14.34987992923842

AllMySatでTHORAD AGENA D DEBをリアルタイム追跡

Download on the App Store